Time,TemperatureF,DewpointF,PressureIn,WindDirection,WindDirectionDegrees,WindSpeedMPH,WindSpeedGustMPH,Humidity,HourlyPrecipIn,Conditions,Clouds,dailyrainin,SoftwareType,DateUTC
2015-03-28 00:04:00,55.4,53.1,30.18,West,259,0.0,1.0,92,0.00,,---,0.00,VWS V13.01,2015-03-28 07:04:00,
2015-03-28 00:09:00,55.3,53.0,30.18,NW,309,1.0,3.0,92,0.00,,---,0.00,VWS V13.01,2015-03-28 07:09:00,
2015-03-28 00:14:00,55.3,53.0,30.18,West,265,1.0,6.0,92,0.00,,---,0.00,VWS V13.01,2015-03-28 07:14:00,
2015-03-28 00:19:00,55.1,52.8,30.18,NW,304,3.0,8.0,92,0.00,,---,0.00,VWS V13.01,2015-03-28 07:19:00,
2015-03-28 00:24:00,54.9,52.6,30.18,NW,319,1.0,3.0,92,0.00,,---,0.00,VWS V13.01,2015-03-28 07:24:00,
2015-03-28 00:29:00,54.6,52.3,30.18,West,281,0.0,3.0,92,0.00,,---,0.00,VWS V13.01,2015-03-28 07:29:00,
2015-03-28 00:34:00,54.5,52.2,30.18,NW,306,3.0,7.0,92,0.00,,---,0.00,VWS V13.01,2015-03-28 07:34:00,
2015-03-28 00:39:00,54.4,52.1,30.18,WNW,288,0.0,7.0,92,0.00,,---,0.00,VWS V13.01,2015-03-28 07:39:00,
2015-03-28 00:44:00,54.3,52.0,30.18,WNW,295,1.0,3.0,92,0.00,,---,0.00,VWS V13.01,2015-03-28 07:44:00,
2015-03-28 00:49:00,54.1,51.8,30.18,WNW,295,0.0,3.0,92,0.00,,---,0.00,VWS V13.01,2015-03-28 07:49:00,
2015-03-28 00:54:00,54.0,51.7,30.18,WNW,289,1.0,2.0,92,0.00,,---,0.00,VWS V13.01,2015-03-28 07:54:00,
2015-03-28 00:59:00,53.9,51.6,30.18,NW,323,0.0,3.0,92,0.00,,---,0.00,VWS V13.01,2015-03-28 07:59:00,
2015-03-28 01:04:00,53.7,51.4,30.18,NW,322,3.0,3.0,92,0.00,,---,0.00,VWS V13.01,2015-03-28 08:04:00,
2015-03-28 01:09:00,53.6,51.3,30.17,West,276,0.0,3.0,92,0.00,,---,0.00,VWS V13.01,2015-03-28 08:09:00,
2015-03-28 01:14:00,53.5,51.5,30.18,WNW,300,0.0,3.0,93,0.00,,---,0.00,VWS V13.01,2015-03-28 08:14:00,
2015-03-28 01:19:00,53.4,51.4,30.18,West,274,0.0,3.0,93,0.00,,---,0.00,VWS V13.01,2015-03-28 08:19:00,
2015-03-28 01:24:00,53.3,51.3,30.18,NW,319,4.0,4.0,93,0.00,,---,0.00,VWS V13.01,2015-03-28 08:24:00,
2015-03-28 01:29:00,53.6,51.6,30.18,WNW,298,1.0,5.0,93,0.00,,---,0.00,VWS V13.01,2015-03-28 08:29:00,
2015-03-28 01:34:00,53.6,51.6,30.18,WNW,298,0.0,1.0,93,0.00,,---,0.00,VWS V13.01,2015-03-28 08:34:00,
2015-03-28 01:39:00,53.5,51.5,30.18,WNW,299,2.0,4.0,93,0.00,,---,0.00,VWS V13.01,2015-03-28 08:39:00,
2015-03-28 01:44:00,53.5,51.5,30.18,NNW,340,1.0,3.0,93,0.00,,---,0.00,VWS V13.01,2015-03-28 08:44:00,
2015-03-28 01:49:00,53.5,51.2,30.18,WNW,302,1.0,4.0,92,0.00,,---,0.00,VWS V13.01,2015-03-28 08:49:00,
2015-03-28 01:54:00,53.4,51.1,30.18,NW,310,1.0,3.0,92,0.00,,---,0.00,VWS V13.01,2015-03-28 08:54:00,
2015-03-28 01:59:00,53.6,51.6,30.18,WNW,302,1.0,4.0,93,0.00,,---,0.00,VWS V13.01,2015-03-28 08:59:00,
2015-03-28 02:04:00,53.6,51.3,30.18,WNW,298,0.0,2.0,92,0.00,,---,0.00,VWS V13.01,2015-03-28 09:04:00,
2015-03-28 02:09:00,53.7,51.4,30.17,NW,305,2.0,5.0,92,0.00,,---,0.00,VWS V13.01,2015-03-28 09:09:00,
2015-03-28 02:14:00,53.8,51.8,30.17,NNW,329,0.0,2.0,93,0.00,,---,0.00,VWS V13.01,2015-03-28 09:14:00,
2015-03-28 02:19:00,53.8,51.5,30.18,NNW,329,0.0,2.0,92,0.00,,---,0.00,VWS V13.01,2015-03-28 09:19:00,
2015-03-28 02:24:00,53.8,51.5,30.17,NNW,327,0.0,2.0,92,0.00,,---,0.00,VWS V13.01,2015-03-28 09:24:00,
2015-03-28 02:29:00,53.9,51.9,30.17,WNW,291,0.0,4.0,93,0.00,,---,0.00,VWS V13.01,2015-03-28 09:29:00,
2015-03-28 02:34:00,54.0,52.0,30.17,North,5,1.0,2.0,93,0.00,,---,0.00,VWS V13.01,2015-03-28 09:34:00,
2015-03-28 02:39:00,54.1,52.1,30.17,NW,325,0.0,3.0,93,0.00,,---,0.00,VWS V13.01,2015-03-28 09:39:00,
2015-03-28 02:44:00,54.1,52.1,30.17,NW,325,0.0,0.0,93,0.00,,---,0.00,VWS V13.01,2015-03-28 09:44:00,
2015-03-28 02:49:00,54.1,52.1,30.17,NW,325,0.0,1.0,93,0.00,,---,0.00,VWS V13.01,2015-03-28 09:49:00,
2015-03-28 02:54:00,54.1,52.1,30.17,NW,325,0.0,1.0,93,0.00,,---,0.00,VWS V13.01,2015-03-28 09:54:00,
2015-03-28 02:59:00,54.1,52.1,30.16,NNW,327,0.0,3.0,93,0.00,,---,0.00,VWS V13.01,2015-03-28 09:59:00,
2015-03-28 03:04:00,54.1,52.1,30.16,WSW,254,0.0,1.0,93,0.00,,---,0.00,VWS V13.01,2015-03-28 10:04:00,
2015-03-28 03:09:00,54.1,52.1,30.16,NW,314,0.0,3.0,93,0.00,,---,0.00,VWS V13.01,2015-03-28 10:09:00,
2015-03-28 03:14:00,54.1,52.1,30.16,NW,314,1.0,1.0,93,0.00,,---,0.00,VWS V13.01,2015-03-28 10:14:00,
2015-03-28 03:19:00,54.2,52.2,30.16,WNW,298,0.0,8.0,93,0.00,,---,0.00,VWS V13.01,2015-03-28 10:19:00,
2015-03-28 03:24:00,54.2,52.2,30.16,North,355,0.0,2.0,93,0.00,,---,0.00,VWS V13.01,2015-03-28 10:24:00,
2015-03-28 03:29:00,54.2,52.2,30.16,West,275,0.0,2.0,93,0.00,,---,0.00,VWS V13.01,2015-03-28 10:29:00,
2015-03-28 03:34:00,54.3,52.3,30.16,NNW,337,0.0,3.0,93,0.00,,---,0.00,VWS V13.01,2015-03-28 10:34:00,
2015-03-28 03:39:00,54.2,51.9,30.15,NW,304,0.0,4.0,92,0.00,,---,0.00,VWS V13.01,2015-03-28 10:39:00,
2015-03-28 03:44:00,54.1,51.8,30.16,WNW,292,2.0,4.0,92,0.00,,---,0.00,VWS V13.01,2015-03-28 10:44:00,
2015-03-28 03:49:00,54.1,51.8,30.16,WNW,295,0.0,7.0,92,0.00,,---,0.00,VWS V13.01,2015-03-28 10:49:00,
2015-03-28 03:54:00,53.9,51.6,30.16,NW,306,5.0,9.0,92,0.00,,---,0.00,VWS V13.01,2015-03-28 10:54:00,
2015-03-28 03:59:00,53.9,51.6,30.16,WNW,302,4.0,9.0,92,0.00,,---,0.00,VWS V13.01,2015-03-28 10:59:00,
2015-03-28 04:04:00,53.9,51.6,30.16,WNW,298,7.0,10.0,92,0.00,,---,0.00,VWS V13.01,2015-03-28 11:04:00,
2015-03-28 04:09:00,53.9,51.6,30.16,WNW,298,5.0,10.0,92,0.00,,---,0.00,VWS V13.01,2015-03-28 11:09:00,
2015-03-28 04:14:00,53.9,51.3,30.15,NW,311,3.0,8.0,91,0.00,,---,0.00,VWS V13.01,2015-03-28 11:14:00,
2015-03-28 04:19:00,53.9,51.3,30.15,WNW,288,0.0,8.0,91,0.00,,---,0.00,VWS V13.01,2015-03-28 11:19:00,
2015-03-28 04:24:00,53.9,51.3,30.16,WNW,300,1.0,8.0,91,0.00,,---,0.00,VWS V13.01,2015-03-28 11:24:00,
2015-03-28 04:29:00,53.9,51.6,30.15,SSW,207,0.0,8.0,92,0.00,,---,0.00,VWS V13.01,2015-03-28 11:29:00,
2015-03-28 04:34:00,54.0,51.4,30.16,NW,315,1.0,6.0,91,0.00,,---,0.00,VWS V13.01,2015-03-28 11:34:00,
2015-03-28 04:39:00,54.1,51.5,30.15,NW,308,2.0,9.0,91,0.00,,---,0.00,VWS V13.01,2015-03-28 11:39:00,
2015-03-28 04:44:00,54.1,51.5,30.15,WNW,302,4.0,5.0,91,0.00,,---,0.00,VWS V13.01,2015-03-28 11:44:00,
2015-03-28 04:49:00,54.1,51.5,30.15,WNW,298,2.0,6.0,91,0.00,,---,0.00,VWS V13.01,2015-03-28 11:49:00,
2015-03-28 04:54:00,54.1,51.5,30.14,WNW,282,2.0,5.0,91,0.00,,---,0.00,VWS V13.01,2015-03-28 11:54:00,
2015-03-28 04:59:00,54.0,51.4,30.15,West,280,0.0,7.0,91,0.00,,---,0.00,VWS V13.01,2015-03-28 11:59:00,
2015-03-28 05:04:00,53.9,51.3,30.15,WNW,296,1.0,6.0,91,0.00,,---,0.00,VWS V13.01,2015-03-28 12:04:00,
2015-03-28 05:09:00,53.8,51.2,30.15,WNW,299,2.0,6.0,91,0.00,,---,0.00,VWS V13.01,2015-03-28 12:09:00,
2015-03-28 05:14:00,53.7,51.4,30.15,West,261,1.0,5.0,92,0.00,,---,0.00,VWS V13.01,2015-03-28 12:14:00,
2015-03-28 05:19:00,53.7,51.4,30.14,NW,313,12.0,12.0,92,0.00,,---,0.00,VWS V13.01,2015-03-28 12:19:00,
2015-03-28 05:24:00,53.7,51.4,30.15,NNW,342,3.0,7.0,92,0.00,,---,0.00,VWS V13.01,2015-03-28 12:24:00,
2015-03-28 05:29:00,53.6,51.3,30.15,NNW,328,1.0,7.0,92,0.00,,---,0.00,VWS V13.01,2015-03-28 12:29:00,
2015-03-28 05:34:00,53.5,50.9,30.15,NW,311,0.0,2.0,91,0.00,,---,0.00,VWS V13.01,2015-03-28 12:34:00,
2015-03-28 05:39:00,53.3,50.7,30.14,NW,310,1.0,3.0,91,0.00,,---,0.00,VWS V13.01,2015-03-28 12:39:00,
2015-03-28 05:44:00,53.1,50.5,30.15,NW,311,0.0,0.0,91,0.00,,---,0.00,VWS V13.01,2015-03-28 12:44:00,
2015-03-28 05:49:00,52.9,50.3,30.15,NW,311,0.0,0.0,91,0.00,,---,0.00,VWS V13.01,2015-03-28 12:49:00,
2015-03-28 05:54:00,52.6,50.0,30.15,NW,311,0.0,1.0,91,0.00,,---,0.00,VWS V13.01,2015-03-28 12:54:00,
2015-03-28 05:59:00,52.3,49.8,30.14,NW,311,0.0,1.0,91,0.00,,---,0.00,VWS V13.01,2015-03-28 12:59:00,
2015-03-28 06:04:00,51.8,49.3,30.15,NW,311,0.0,0.0,91,0.00,,---,0.00,VWS V13.01,2015-03-28 13:04:00,
2015-03-28 06:09:00,51.5,49.0,30.15,NW,311,0.0,0.0,91,0.00,,---,0.00,VWS V13.01,2015-03-28 13:09:00,
2015-03-28 06:14:00,51.0,48.2,30.15,NW,311,0.0,0.0,90,0.00,,---,0.00,VWS V13.01,2015-03-28 13:14:00,
2015-03-28 06:19:00,50.4,47.9,30.15,NW,311,0.0,1.0,91,0.00,,---,0.00,VWS V13.01,2015-03-28 13:19:00,
2015-03-28 06:24:00,49.8,47.3,30.15,NW,325,0.0,2.0,91,0.00,,---,0.00,VWS V13.01,2015-03-28 13:24:00,
2015-03-28 06:29:00,49.4,46.9,30.15,NW,325,0.0,2.0,91,0.00,,---,0.00,VWS V13.01,2015-03-28 13:29:00,
2015-03-28 06:34:00,49.1,46.9,30.15,NW,325,0.0,1.0,92,0.00,,---,0.00,VWS V13.01,2015-03-28 13:34:00,
2015-03-28 06:39:00,48.8,46.6,30.15,NW,325,0.0,1.0,92,0.00,,---,0.00,VWS V13.01,2015-03-28 13:39:00,
2015-03-28 06:44:00,48.7,46.8,30.15,NNW,329,1.0,2.0,93,0.00,,---,0.00,VWS V13.01,2015-03-28 13:44:00,
2015-03-28 06:49:00,48.6,46.7,30.15,NNW,329,0.0,2.0,93,0.00,,---,0.00,VWS V13.01,2015-03-28 13:49:00,
2015-03-28 06:54:00,48.7,46.8,30.15,NNW,329,0.0,0.0,93,0.00,,---,0.00,VWS V13.01,2015-03-28 13:54:00,
2015-03-28 06:59:00,48.5,46.6,30.15,NNW,329,0.0,2.0,93,0.00,,---,0.00,VWS V13.01,2015-03-28 13:59:00,
2015-03-28 07:04:00,48.3,46.4,30.14,NNW,329,0.0,1.0,93,0.00,,---,0.00,VWS V13.01,2015-03-28 14:04:00,
2015-03-28 07:09:00,48.1,46.2,30.15,NNW,329,0.0,3.0,93,0.00,,---,0.00,VWS V13.01,2015-03-28 14:09:00,
2015-03-28 07:14:00,48.1,46.5,30.15,NNW,329,0.0,0.0,94,0.00,,---,0.00,VWS V13.01,2015-03-28 14:14:00,
2015-03-28 07:19:00,48.2,46.6,30.15,NNW,329,1.0,1.0,94,0.00,,---,0.00,VWS V13.01,2015-03-28 14:19:00,
2015-03-28 07:24:00,48.2,46.6,30.15,NNW,329,2.0,2.0,94,0.00,,---,0.00,VWS V13.01,2015-03-28 14:24:00,
2015-03-28 07:29:00,48.0,46.4,30.15,NNW,331,0.0,2.0,94,0.00,,---,0.00,VWS V13.01,2015-03-28 14:29:00,
2015-03-28 07:34:00,48.1,46.5,30.16,NNW,331,0.0,1.0,94,0.00,,---,0.00,VWS V13.01,2015-03-28 14:34:00,
2015-03-28 07:39:00,48.1,46.5,30.15,NNW,331,0.0,2.0,94,0.00,,---,0.00,VWS V13.01,2015-03-28 14:39:00,
2015-03-28 07:44:00,48.5,47.1,30.16,NW,313,0.0,2.0,95,0.00,,---,0.00,VWS V13.01,2015-03-28 14:44:00,
2015-03-28 07:49:00,48.9,47.5,30.16,NW,313,0.0,2.0,95,0.00,,---,0.00,VWS V13.01,2015-03-28 14:49:00,
2015-03-28 07:54:00,49.1,47.7,30.16,NW,313,0.0,1.0,95,0.00,,---,0.00,VWS V13.01,2015-03-28 14:54:00,
2015-03-28 07:59:00,49.3,47.9,30.16,North,360,0.0,3.0,95,0.00,,---,0.00,VWS V13.01,2015-03-28 14:59:00,
2015-03-28 08:04:00,49.7,48.3,30.16,North,360,0.0,0.0,95,0.00,,---,0.00,VWS V13.01,2015-03-28 15:04:00,
2015-03-28 08:09:00,50.1,48.7,30.16,North,360,0.0,1.0,95,0.00,,---,0.00,VWS V13.01,2015-03-28 15:09:00,
2015-03-28 08:14:00,50.7,49.3,30.16,NNE,16,0.0,1.0,95,0.00,,---,0.00,VWS V13.01,2015-03-28 15:14:00,
2015-03-28 08:19:00,51.5,50.1,30.16,NNE,16,0.0,1.0,95,0.00,,---,0.00,VWS V13.01,2015-03-28 15:19:00,
2015-03-28 08:24:00,52.1,50.7,30.16,NNE,14,0.0,2.0,95,0.00,,---,0.00,VWS V13.01,2015-03-28 15:24:00,
2015-03-28 08:29:00,52.7,51.0,30.16,North,355,2.0,2.0,94,0.00,,---,0.00,VWS V13.01,2015-03-28 15:29:00,
2015-03-28 08:34:00,53.2,51.5,30.16,NNE,17,0.0,1.0,94,0.00,,---,0.00,VWS V13.01,2015-03-28 15:34:00,
2015-03-28 08:39:00,53.6,51.6,30.17,NNE,16,0.0,1.0,93,0.00,,---,0.00,VWS V13.01,2015-03-28 15:39:00,
2015-03-28 08:44:00,53.8,51.8,30.17,NNE,16,0.0,0.0,93,0.00,,---,0.00,VWS V13.01,2015-03-28 15:44:00,
2015-03-28 08:49:00,54.1,51.8,30.17,North,355,0.0,1.0,92,0.00,,---,0.00,VWS V13.01,2015-03-28 15:49:00,
2015-03-28 08:54:00,54.5,52.2,30.17,WNW,285,0.0,3.0,92,0.00,,---,0.00,VWS V13.01,2015-03-28 15:54:00,
2015-03-28 08:59:00,55.0,52.7,30.17,WNW,301,1.0,3.0,92,0.00,,---,0.00,VWS V13.01,2015-03-28 15:59:00,
2015-03-28 09:04:00,55.5,53.2,30.17,SW,227,1.0,2.0,92,0.00,,---,0.00,VWS V13.01,2015-03-28 16:04:00,
2015-03-28 09:09:00,56.2,53.9,30.17,WNW,300,1.0,6.0,92,0.00,,---,0.00,VWS V13.01,2015-03-28 16:09:00,
2015-03-28 09:14:00,56.8,54.2,30.17,WNW,303,2.0,3.0,91,0.00,,---,0.00,VWS V13.01,2015-03-28 16:14:00,
2015-03-28 09:19:00,57.5,54.0,30.17,NNW,340,3.0,8.0,88,0.00,,---,0.00,VWS V13.01,2015-03-28 16:19:00,
2015-03-28 09:24:00,58.4,54.2,30.17,NNW,341,0.0,2.0,86,0.00,,---,0.00,VWS V13.01,2015-03-28 16:24:00,
2015-03-28 09:29:00,59.1,54.3,30.17,WNW,301,1.0,4.0,84,0.00,,---,0.00,VWS V13.01,2015-03-28 16:29:00,
2015-03-28 09:34:00,59.5,54.3,30.17,WNW,297,2.0,4.0,83,0.00,,---,0.00,VWS V13.01,2015-03-28 16:34:00,
2015-03-28 09:39:00,59.9,54.7,30.17,WNW,286,1.0,6.0,83,0.00,,---,0.00,VWS V13.01,2015-03-28 16:39:00,
2015-03-28 09:44:00,60.3,54.5,30.17,NW,314,3.0,5.0,81,0.00,,---,0.00,VWS V13.01,2015-03-28 16:44:00,
2015-03-28 09:49:00,60.8,54.6,30.17,NNW,330,4.0,8.0,80,0.00,,---,0.00,VWS V13.01,2015-03-28 16:49:00,
2015-03-28 09:54:00,61.3,54.7,30.18,West,281,6.0,8.0,79,0.00,,---,0.00,VWS V13.01,2015-03-28 16:54:00,
2015-03-28 09:59:00,61.1,54.2,30.18,West,267,3.0,10.0,78,0.00,,---,0.00,VWS V13.01,2015-03-28 16:59:00,
2015-03-28 10:04:00,61.1,54.5,30.18,NW,311,4.0,9.0,79,0.00,,---,0.00,VWS V13.01,2015-03-28 17:04:00,
2015-03-28 10:09:00,60.9,54.3,30.18,NW,309,5.0,9.0,79,0.00,,---,0.00,VWS V13.01,2015-03-28 17:09:00,
2015-03-28 10:14:00,60.6,54.1,30.18,WNW,293,7.0,8.0,79,0.00,,---,0.00,VWS V13.01,2015-03-28 17:14:00,
2015-03-28 10:19:00,60.8,53.9,30.18,NW,306,7.0,10.0,78,0.00,,---,0.00,VWS V13.01,2015-03-28 17:19:00,
2015-03-28 10:24:00,61.4,54.8,30.18,WSW,254,1.0,5.0,79,0.00,,---,0.00,VWS V13.01,2015-03-28 17:24:00,
2015-03-28 10:29:00,62.1,54.5,30.18,WNW,299,5.0,8.0,76,0.00,,---,0.00,VWS V13.01,2015-03-28 17:29:00,
2015-03-28 10:34:00,62.3,54.7,30.18,WNW,301,1.0,6.0,76,0.00,,---,0.00,VWS V13.01,2015-03-28 17:34:00,
2015-03-28 10:39:00,63.1,55.1,30.18,WNW,292,7.0,7.0,75,0.00,,---,0.00,VWS V13.01,2015-03-28 17:39:00,
2015-03-28 10:44:00,64.0,55.6,30.18,NW,306,3.0,4.0,74,0.00,,---,0.00,VWS V13.01,2015-03-28 17:44:00,
2015-03-28 10:49:00,64.8,56.3,30.18,NW,313,2.0,5.0,74,0.00,,---,0.00,VWS V13.01,2015-03-28 17:49:00,
2015-03-28 10:54:00,64.9,56.4,30.18,SW,228,2.0,3.0,74,0.00,,---,0.00,VWS V13.01,2015-03-28 17:54:00,
2015-03-28 10:59:00,64.6,56.5,30.18,WNW,292,5.0,9.0,75,0.00,,---,0.00,VWS V13.01,2015-03-28 17:59:00,
2015-03-28 11:04:00,64.1,56.0,30.18,SW,217,2.0,5.0,75,0.00,,---,0.00,VWS V13.01,2015-03-28 18:04:00,
2015-03-28 11:09:00,63.6,55.5,30.18,SW,228,2.0,7.0,75,0.00,,---,0.00,VWS V13.01,2015-03-28 18:09:00,
2015-03-28 11:14:00,63.4,55.7,30.18,WNW,296,0.0,3.0,76,0.00,,---,0.00,VWS V13.01,2015-03-28 18:14:00,
2015-03-28 11:19:00,63.6,55.9,30.18,West,273,2.0,8.0,76,0.00,,---,0.00,VWS V13.01,2015-03-28 18:19:00,
2015-03-28 11:24:00,64.1,56.4,30.18,WSW,237,1.0,5.0,76,0.00,,---,0.00,VWS V13.01,2015-03-28 18:24:00,
2015-03-28 11:29:00,64.2,56.5,30.18,West,279,1.0,7.0,76,0.00,,---,0.00,VWS V13.01,2015-03-28 18:29:00,
2015-03-28 11:34:00,64.3,56.2,30.18,SW,232,2.0,5.0,75,0.00,,---,0.00,VWS V13.01,2015-03-28 18:34:00,
2015-03-28 11:39:00,64.3,56.2,30.18,WSW,257,1.0,5.0,75,0.00,,---,0.00,VWS V13.01,2015-03-28 18:39:00,
2015-03-28 11:44:00,64.1,55.3,30.18,WSW,248,3.0,7.0,73,0.00,,---,0.00,VWS V13.01,2015-03-28 18:44:00,
2015-03-28 11:49:00,64.2,55.8,30.17,SW,220,2.0,7.0,74,0.00,,---,0.00,VWS V13.01,2015-03-28 18:49:00,
2015-03-28 11:54:00,64.3,55.5,30.17,SW,225,1.0,6.0,73,0.00,,---,0.00,VWS V13.01,2015-03-28 18:54:00,
2015-03-28 11:59:00,64.4,55.6,30.17,WSW,238,1.0,7.0,73,0.00,,---,0.00,VWS V13.01,2015-03-28 18:59:00,
2015-03-28 12:04:00,64.8,56.0,30.17,WNW,288,2.0,6.0,73,0.00,,---,0.00,VWS V13.01,2015-03-28 19:04:00,
2015-03-28 12:09:00,65.3,56.0,30.17,WSW,240,2.0,6.0,72,0.00,,---,0.00,VWS V13.01,2015-03-28 19:09:00,
2015-03-28 12:14:00,65.1,55.1,30.17,SW,221,1.0,7.0,70,0.00,,---,0.00,VWS V13.01,2015-03-28 19:14:00,
2015-03-28 12:19:00,65.0,55.4,30.17,West,259,3.0,7.0,71,0.00,,---,0.00,VWS V13.01,2015-03-28 19:19:00,
2015-03-28 12:24:00,64.5,54.5,30.17,West,278,0.0,12.0,70,0.00,,---,0.00,VWS V13.01,2015-03-28 19:24:00,
2015-03-28 12:29:00,64.2,54.2,30.17,WSW,242,1.0,12.0,70,0.00,,---,0.00,VWS V13.01,2015-03-28 19:29:00,
2015-03-28 12:34:00,63.7,54.1,30.17,SW,217,3.0,7.0,71,0.00,,---,0.00,VWS V13.01,2015-03-28 19:34:00,
2015-03-28 12:39:00,63.3,53.4,30.17,WSW,243,2.0,9.0,70,0.00,,---,0.00,VWS V13.01,2015-03-28 19:39:00,
2015-03-28 12:44:00,63.2,53.7,30.17,WNW,286,1.0,5.0,71,0.00,,---,0.00,VWS V13.01,2015-03-28 19:44:00,
2015-03-28 12:49:00,63.1,53.2,30.16,WNW,291,7.0,9.0,70,0.00,,---,0.00,VWS V13.01,2015-03-28 19:49:00,
2015-03-28 12:54:00,62.7,52.8,30.16,West,270,4.0,15.0,70,0.00,,---,0.00,VWS V13.01,2015-03-28 19:54:00,
2015-03-28 12:59:00,62.9,53.8,30.16,WSW,246,2.0,15.0,72,0.00,,---,0.00,VWS V13.01,2015-03-28 19:59:00,
2015-03-28 13:04:00,63.5,53.5,30.16,SW,219,4.0,8.0,70,0.00,,---,0.00,VWS V13.01,2015-03-28 20:04:00,
2015-03-28 13:09:00,64.0,53.6,30.16,West,263,1.0,12.0,69,0.00,,---,0.00,VWS V13.01,2015-03-28 20:09:00,
2015-03-28 13:14:00,63.9,52.7,30.16,WSW,245,5.0,12.0,67,0.00,,---,0.00,VWS V13.01,2015-03-28 20:14:00,
2015-03-28 13:19:00,63.7,53.0,30.16,SSW,198,1.0,12.0,68,0.00,,---,0.00,VWS V13.01,2015-03-28 20:19:00,
2015-03-28 13:24:00,64.1,53.7,30.15,WSW,250,2.0,7.0,69,0.00,,---,0.00,VWS V13.01,2015-03-28 20:24:00,
2015-03-28 13:29:00,64.9,54.1,30.15,WNW,298,5.0,12.0,68,0.00,,---,0.00,VWS V13.01,2015-03-28 20:29:00,
2015-03-28 13:34:00,65.5,54.3,30.15,WNW,300,3.0,4.0,67,0.00,,---,0.00,VWS V13.01,2015-03-28 20:34:00,
2015-03-28 13:39:00,65.6,53.5,30.14,West,265,2.0,9.0,65,0.00,,---,0.00,VWS V13.01,2015-03-28 20:39:00,
2015-03-28 13:44:00,65.5,52.6,30.14,NNW,329,3.0,12.0,63,0.00,,---,0.00,VWS V13.01,2015-03-28 20:44:00,
2015-03-28 13:49:00,65.8,53.7,30.14,SSW,202,3.0,12.0,65,0.00,,---,0.00,VWS V13.01,2015-03-28 20:49:00,
2015-03-28 13:54:00,65.9,52.1,30.14,SSW,200,4.0,9.0,61,0.00,,---,0.00,VWS V13.01,2015-03-28 20:54:00,
2015-03-28 13:59:00,66.3,52.9,30.13,NW,307,3.0,9.0,62,0.00,,---,0.00,VWS V13.01,2015-03-28 20:59:00,
2015-03-28 14:04:00,65.9,50.7,30.13,NW,319,6.0,12.0,58,0.00,,---,0.00,VWS V13.01,2015-03-28 21:04:00,
2015-03-28 14:09:00,65.1,51.3,30.13,SSW,199,1.0,13.0,61,0.00,,---,0.00,VWS V13.01,2015-03-28 21:09:00,
2015-03-28 14:14:00,65.7,51.9,30.13,West,272,3.0,8.0,61,0.00,,---,0.00,VWS V13.01,2015-03-28 21:14:00,
2015-03-28 14:19:00,66.0,52.6,30.12,WSW,247,2.0,8.0,62,0.00,,---,0.00,VWS V13.01,2015-03-28 21:19:00,
2015-03-28 14:24:00,65.9,51.6,30.12,WNW,295,10.0,11.0,60,0.00,,---,0.00,VWS V13.01,2015-03-28 21:24:00,
2015-03-28 14:29:00,65.9,52.1,30.12,West,269,3.0,12.0,61,0.00,,---,0.00,VWS V13.01,2015-03-28 21:29:00,
2015-03-28 14:34:00,66.6,52.3,30.12,SW,234,2.0,6.0,60,0.00,,---,0.00,VWS V13.01,2015-03-28 21:34:00,
2015-03-28 14:39:00,67.5,51.3,30.12,WNW,297,10.0,12.0,56,0.00,,---,0.00,VWS V13.01,2015-03-28 21:39:00,
2015-03-28 14:44:00,67.5,49.8,30.12,NW,319,5.0,10.0,53,0.00,,---,0.00,VWS V13.01,2015-03-28 21:44:00,
2015-03-28 14:49:00,67.5,50.3,30.12,SSW,210,3.0,10.0,54,0.00,,---,0.00,VWS V13.01,2015-03-28 21:49:00,
2015-03-28 14:54:00,67.6,48.8,30.12,West,269,2.0,12.0,51,0.00,,---,0.00,VWS V13.01,2015-03-28 21:54:00,
2015-03-28 14:59:00,67.7,49.5,30.12,West,279,1.0,12.0,52,0.00,,---,0.00,VWS V13.01,2015-03-28 21:59:00,
2015-03-28 15:04:00,67.9,51.2,30.12,SSW,202,3.0,6.0,55,0.00,,---,0.00,VWS V13.01,2015-03-28 22:04:00,
2015-03-28 15:09:00,67.7,50.5,30.11,WNW,286,2.0,11.0,54,0.00,,---,0.00,VWS V13.01,2015-03-28 22:09:00,
2015-03-28 15:14:00,67.6,51.8,30.11,West,278,2.0,7.0,57,0.00,,---,0.00,VWS V13.01,2015-03-28 22:14:00,
2015-03-28 15:19:00,67.1,50.9,30.11,West,281,6.0,11.0,56,0.00,,---,0.00,VWS V13.01,2015-03-28 22:19:00,
2015-03-28 15:24:00,66.9,51.7,30.11,NW,320,3.0,9.0,58,0.00,,---,0.00,VWS V13.01,2015-03-28 22:24:00,
2015-03-28 15:29:00,66.3,52.0,30.11,SSW,210,4.0,10.0,60,0.00,,---,0.00,VWS V13.01,2015-03-28 22:29:00,
2015-03-28 15:34:00,66.3,52.5,30.11,WSW,244,3.0,8.0,61,0.00,,---,0.00,VWS V13.01,2015-03-28 22:34:00,